Regional Weather Roundup
Issued by NWS Newport/Morehead, NC

Current Version | Previous Version | Graphics & Text | Print | Product List | Glossary Off
Versions: 1 2 3 4 5 6 7 8 9 10 11 12 13 14 15 16 17 18 19 20 21 22 23 24 25 26 27 28 29 30 31 32 33 34 35 36 37 38 39 40 41 42 43 44 45 46 47 48 49 50

000
ASUS42 KMHX 040913
RWRMHX
WEATHER ROUNDUP FOR EASTERN NORTH CAROLINA
NATIONAL WEATHER SERVICE NEWPORT/MOREHEAD CITY NC
500 AM EDT TUE AUG 04 2015

NOTE: "FAIR" INDICATES FEW OR NO CLOUDS BELOW 12,000 FEET
WITH NO SIGNIFICANT WEATHER AND/OR OBSTRUCTIONS TO VISIBILITY

NCZ015>017-031-032-045>047-102-103-041000-
NORTH COAST

CITY           SKY/WX    TMP DP  RH WIND       PRES   REMARKS
EDENTON          N/A     78  76  92 SW10G16   29.96S
ELIZABETH CITY MOCLDY    79  76  90 SW14G22   29.96R
KITTY HAWK     MOSUNNY   79  76  90 SW7       29.96S
MANTEO         CLEAR     79  77  93 SW15      29.98R

$$

NCZ045>047-081-094-103-104-041000-
CENTRAL COAST

CITY           SKY/WX    TMP DP  RH WIND       PRES   REMARKS
FRISCO         CLOUDY    79  75  87 SW10      29.99R
SWANQUARTER      N/A     81 N/A N/A SW12G18   29.94S

$$

NCZ095-097-098-100-101-041000-
SOUTHERN COAST

CITY           SKY/WX    TMP DP  RH WIND       PRES   REMARKS
BEAUFORT       PTCLDY    80  78  94 S9        29.98S
CEDAR ISLAND     N/A     79 N/A N/A S8        30.03R
JACKSONVILLE   CLEAR     79  75  87 S5        29.97S
PINEY ISLAND   PTSUNNY  N/A N/A N/A S6        29.99R
WILMINGTON     MOCLDY    80  76  87 S6        29.95F


$$

NCZ011>013-027>030-043-044-078>080-089-090>093-098-041000-
COASTAL PLAIN

CITY           SKY/WX    TMP DP  RH WIND       PRES   REMARKS
AHOSKIE        PTCLDY    72  70  95 CALM      29.97R
CLINTON        CLEAR     75  75 100 CALM      29.96F
ELIZABETHTOWN  MOCLDY    75  75 100 CALM      29.95F
GOLDSBORO      MOCLDY    75  75  98 E2        29.95R
GREENVILLE     CLOUDY    77  75  94 SW8       29.99R
HAVELOCK       PTCLDY    78  76  93 S3        29.99S
KENANSVILLE    PTCLDY   N/A N/A N/A CALM      29.98F
KINSTON        CLEAR     77  76  95 S8        29.98R
NEW BERN       MOCLDY    79  76  90 S5        29.99R
RICHLANDS      CLEAR     75  72  88 CALM      29.97F
ROCKY MOUNT    CLEAR     74  72  93 S5        29.97R
WASHINGTON     CLOUDY    76  75  96 NW3       29.98R
WHITEVILLE     CLOUDY    75  73  91 CALM      29.95R

$$

AMZ130-135-150-152-154-156-158-170-250-252-270-ANZ085-086-088-633-658-670-041000-
MARINE OBSERVATIONS

STATION/POSITION TIME  TEMP    WIND        PRES    WAVE   SWELL
                       AIR SEA DIR/SP/G            HT/PER HT/PER
                 (UTC) (F)     (DEG/KT/KT) (MB)    (FT/S) (FT/S)
CHESAPEAKE LIGHT 0900   77     220/ 22/ 24 1014.1
64 E VA BEACH    0850   80 81  220/ 17/ 21 1013.8    7/ 6   2/11
DUCK             0800   79 63  200/ 13/ 15 1013.7
2 E DUCK         0811      68                N/A     2/ 6
OREGON INLET     0800   80 80  200/ 15/ 18 1014.8
13E OREGON INLT  0900      79                N/A     4/ 6
HATTERAS CG      0800   79 79  190/  4/  7 1014.9
DIAMOND BUOY     0850   82 84  190/ 17/ 21 1015.4    5/ 5   2/11
CAPE LOOKOUT     0900   81     190/ 10/ 13 1015.0
BEAUFORT LAB     0800   81 80  200/ 10/ 13 1014.5
30 SE NEW RVR IN NOT AVBL
27 SE WRIGHTSVLE 0800   79 81  180/ 21/ 23   N/A
5 SE WRIGHTSVLE  0808   82 82  190/ 16/ 21 1014.6
225 S CAPE HAT   0850   81 81  190/ 12/ 14 1018.1    5/ 7   3/ 7
41 SE CHARLESTON 0850   82 83  190/ 21/ 27 1010.6    7/ 7   2/ 9

$$


USA.gov is the U.S. government's official web portal to all federal, state and local government web resources and services.